Flag for U.S.A. Weather past 2 weeks in Oakland, California, U.S.A.

Now
61 °F

Overcast.


Feels Like: 61 °F
Forecast: 62 / 75 °F
Wind: 9 mph from West

Location: Metro Oakland International Airport

Current Time: Sep 30, 2014 at 5:26:27 AM

Latest Report: Sep 30, 2014 at 4:53 AM


Visibility: 10 mi

Pressure: 29.96 "Hg

Humidity: 87%

Dew point: 57 °F

Location of OaklandLocation

Historic Weather in Oakland — Graph

°F

Oakland temperature yesterday

Maximum temperature yesterday: 69 °F (at 2:53 PM)
Minimum temperature yesterday: 61 °F (at 12:53 AM)
Average temperature yesterday: 63 °F

Past Weeks' High & Low Weather Summary

 TemperatureHumidityPressure
High77 °F (Sep 15, 3:53 PM)97% (Sep 25, 6:53 AM)30.04 "Hg (Sep 25, 6:53 AM)
Low56 °F (Sep 27, 4:53 AM)44% (Sep 15, 3:53 PM)29.75 "Hg (Sep 17, 6:53 PM)
Average66 °F75%29.92 "Hg
* Reported Sep 15 3:53 AM — Sep 30 3:53 AM, Oakland, Weather by CustomWeather, © 2014

Note: Actual official high and low records may vary slightly from our data, if they occured in-between our weather recording intervals... More about our weather records

Advertising

Oakland weather history for previous 24 hours

 ConditionsComfort  
Time TempWeatherWind HumidityBarometerVisibility
3:53 AM
Sep 30
62 °FOvercast.5 mph83%29.96 "Hg10 mi
2:53 AM62 °FOvercast.9 mph86%29.96 "Hg10 mi
1:53 AM62 °FPassing clouds.13 mph83%29.96 "Hg10 mi
12:53 AM58 °FPassing clouds.3 mph87%29.98 "Hg10 mi
11:53 PM
Sep 29
62 °FPassing clouds.3 mph80%29.98 "Hg10 mi
10:53 PM62 °FPassing clouds.12 mph80%29.99 "Hg10 mi
9:53 PM62 °FPassing clouds.9 mph80%29.99 "Hg10 mi
8:53 PM63 °FPassing clouds.10 mph78%29.98 "Hg10 mi
7:53 PM63 °FScattered clouds.12 mph78%29.98 "Hg10 mi
6:53 PM63 °FScattered clouds.13 mph78%29.97 "Hg10 mi
5:53 PM65 °FPassing clouds.15 mph73%29.97 "Hg10 mi
4:53 PM66 °FScattered clouds.15 mph70%29.98 "Hg10 mi
3:53 PM67 °FPassing clouds.17 mph68%29.98 "Hg10 mi
2:53 PM69 °FPassing clouds.15 mph66%29.99 "Hg10 mi
1:53 PM68 °FPassing clouds.9 mph65%30.01 "Hg10 mi
12:53 PM65 °FPartly sunny.3 mph76%30.04 "Hg10 mi
11:53 AM63 °FOvercast.3 mph78%30.04 "Hg10 mi
10:53 AM62 °FLow clouds.8 mph80%30.04 "Hg9 mi
9:53 AM61 °FLow clouds.8 mph83%30.03 "Hg8 mi
8:53 AM62 °FLow clouds.8 mph80%30.03 "Hg8 mi
7:53 AM62 °FLow clouds.5 mph83%30.01 "Hg10 mi
6:53 AM61 °FLow clouds.No wind87%29.99 "Hg9 mi
5:53 AM61 °FLow clouds.5 mph83%29.98 "Hg8 mi
Weather by CustomWeather, © 2014

See weather overviewHow to use our weather pages